Wind_Speed
22 20 18 16 14 11 10 9 8 7 7 8 8 7 6 7 8 9 11 10 10 10 11 12 12 12 13 13 14 14 13 12 12 12 11 10 10 9 8 7 6 5 3 2
23 20 18 18 16 14 12 11 8 6 7 8 8 9 7 7 8 8 8 8 8 8 9 10 10 10 11 12 13 13 12 12 11 11 11 10 10 9 8 7 6 5 4 2
24 20 21 20 19 17 14 12 9 9 10 11 11 10 9 9 8 8 8 8 8 8 8 9 9 9 10 11 12 12 12 11 10 10 10 10 10 9 9 8 7 5 4 4
25 23 24 23 21 18 16 13 13 13 14 15 14 12 11 10 11 10 9 8 7 8 8 8 8 8 9 9 10 11 11 11 10 10 9 9 9 9 8 8 7 6 5 5
25 25 26 25 22 20 18 16 17 17 16 18 17 16 14 14 14 12 9 8 7 7 7 7 6 7 7 9 10 10 11 11 10 10 9 9 9 9 8 8 8 7 5 5
26 26 27 26 23 22 19 19 20 20 19 19 18 18 16 17 16 13 11 9 7 7 8 7 7 7 7 9 9 10 10 10 11 10 10 9 8 8 8 8 8 7 6 5
27 27 26 25 24 22 21 21 22 23 22 20 18 20 19 17 15 13 11 9 9 9 8 8 8 8 8 8 9 10 10 10 10 10 10 9 8 8 8 8 7 7 6 6
28 28 26 25 24 22 20 22 23 23 22 21 20 21 19 18 16 14 12 10 9 9 9 8 9 8 8 9 9 9 10 10 10 10 10 9 9 8 8 7 8 8 8 7
27 27 25 24 23 24 22 23 23 23 23 22 22 21 20 18 17 15 14 11 9 10 10 10 11 11 10 9 9 10 11 11 11 11 11 10 10 9 9 8 9 9 8 8
26 26 25 25 25 25 24 23 24 25 23 23 24 23 21 19 18 17 15 12 12 12 14 14 14 12 12 11 10 10 11 12 11 12 11 10 10 10 10 9 9 9 9 8
27 28 27 27 27 26 25 25 26 27 26 25 25 24 21 19 17 15 14 14 14 14 14 15 14 13 14 14 14 13 13 13 12 12 12 11 11 11 11 11 10 10 10 10
28 29 30 29 27 26 26 25 25 27 27 26 26 25 22 21 18 17 16 16 15 15 16 16 16 16 15 16 16 16 15 14 14 13 13 13 14 13 13 13 13 13 12 12
29 30 30 30 29 27 27 25 24 26 28 28 29 26 25 23 21 20 19 18 18 16 16 17 18 18 18 18 18 17 16 16 16 15 14 15 15 15 16 16 16 15 14 13
30 31 32 31 31 30 29 28 27 27 29 29 29 27 26 25 25 23 21 20 18 17 17 19 20 21 21 20 20 19 18 18 17 16 17 17 17 17 17 17 16 17 16 16
32 33 32 32 32 32 32 31 29 29 29 30 29 29 27 26 25 24 23 22 21 20 20 22 23 23 22 21 21 21 20 20 19 19 19 19 19 19 19 19 18 18 18 18
33 33 33 33 32 33 33 32 31 31 31 31 31 30 28 28 27 25 25 24 24 24 24 24 24 24 24 23 23 23 22 23 21 21 21 20 21 20 21 20 20 19 19 19
34 34 34 33 33 34 35 33 32 32 30 30 30 30 30 30 30 27 26 26 27 27 26 26 25 26 25 24 24 24 24 24 23 23 23 23 23 22 22 22 22 21 21 20
33 33 33 34 34 36 35 34 33 32 32 31 30 30 30 30 30 30 30 30 29 28 28 27 27 26 25 25 25 26 27 26 25 25 25 25 25 25 24 24 23 22 21 21
31 32 33 33 33 35 35 36 36 35 33 33 33 32 32 31 33 33 32 30 29 27 27 27 27 27 26 25 26 26 27 27 26 26 26 26 27 26 25 24 25 24 23 23
30 31 32 32 33 34 34 35 36 37 37 36 35 34 33 32 32 32 32 32 31 30 30 30 29 28 28 28 27 27 28 28 28 28 28 28 28 27 27 26 26 25 25 25
30 30 31 31 33 35 34 35 35 37 38 37 36 36 34 33 33 33 34 34 34 32 32 32 32 31 31 31 30 30 29 29 29 29 29 29 28 28 27 27 27 27 27 26
31 31 31 32 33 35 35 35 36 36 36 36 37 36 34 34 34 35 36 36 36 35 35 35 34 34 34 33 32 32 31 30 30 31 30 30 29 29 29 29 29 29 29 28
32 31 32 33 34 34 34 34 35 35 36 36 37 36 37 36 36 37 38 38 38 37 36 36 37 36 36 35 34 33 33 32 31 31 31 30 30 31 31 32 32 31 31 31
33 32 32 32 33 33 33 34 34 35 36 37 38 37 37 37 38 38 38 38 38 38 38 38 38 38 37 37 35 35 34 33 33 33 32 32 32 33 34 34 33 34 34 35
33 33 32 32 31 31 31 33 34 34 35 37 37 38 37 37 37 38 38 38 37 38 37 37 37 37 37 37 36 36 36 36 35 35 34 34 34 35 35 36 35 35 35 36
33 33 32 33 33 33 34 33 34 34 34 35 36 36 37 38 37 37 37 36 36 37 37 36 36 36 36 36 37 38 38 37 37 36 36 36 37 38 38 38 37 37 37 37
Wind_Direction
211 208 203 201 201 207 215 229 249 254 259 282 293 294 304 335 344 352 355 1 12 17 16 21 30 35 36 37 38 38 37 37 38 38 38 37 37 36 33 29 27 30 32 42
213 211 204 207 209 214 219 229 240 244 260 269 277 282 292 308 329 332 343 354 0 5 7 14 24 27 29 29 30 30 30 30 32 32 32 32 30 28 25 21 16 16 14 2
215 209 205 210 215 216 222 228 232 249 260 263 270 278 293 298 308 310 318 335 338 349 357 2 10 15 17 18 19 21 21 22 24 24 24 25 25 26 24 19 15 13 4 354
216 209 208 212 217 217 222 230 235 245 257 258 266 278 284 290 300 307 313 318 325 335 343 348 359 3 4 4 7 11 11 13 14 13 13 14 15 18 18 13 9 6 357 346
218 213 212 215 214 217 222 226 233 237 245 256 256 265 271 278 290 293 297 309 310 320 325 330 343 353 355 354 356 359 2 5 5 3 4 4 5 5 5 5 4 3 354 345
219 215 217 219 216 218 224 227 228 232 239 249 255 264 266 276 283 284 281 292 298 297 306 315 327 340 341 342 344 346 350 354 355 354 356 357 357 356 357 358 360 356 351 346
220 218 220 221 221 220 225 228 229 232 239 246 252 259 266 270 269 269 273 277 284 291 298 301 313 323 324 328 330 332 334 336 340 342 344 348 349 349 351 353 356 355 353 351
220 218 220 222 225 226 229 231 232 236 240 245 252 261 265 265 268 268 269 273 279 280 282 290 299 303 309 311 317 323 326 327 327 329 332 335 335 337 341 344 347 348 348 344
223 221 220 222 224 226 230 235 237 239 242 248 252 259 263 262 271 275 271 266 272 280 277 286 294 287 291 295 302 314 317 320 321 320 322 325 327 327 330 334 335 337 336 335
226 223 218 219 221 226 230 233 237 238 241 247 252 258 263 260 267 273 270 266 272 274 278 281 284 278 286 290 292 298 307 308 309 310 312 315 317 318 319 319 321 326 327 324
226 225 217 217 222 227 230 232 235 237 241 248 252 258 261 262 268 274 268 266 271 271 275 279 283 279 292 293 296 297 301 302 299 298 298 301 306 307 305 306 307 310 312 312
225 227 223 220 223 228 233 235 238 239 240 245 252 258 259 264 271 276 272 267 267 270 275 281 282 286 289 291 292 290 291 295 293 290 290 291 294 296 296 297 296 296 297 299
225 228 228 224 223 227 230 233 239 242 241 242 248 255 258 262 265 269 270 269 270 271 273 277 283 285 286 285 286 285 288 290 288 288 289 289 288 290 292 290 289 290 291 290
227 230 231 229 226 226 228 230 233 237 240 242 244 251 257 260 260 263 266 268 270 272 276 281 287 288 289 285 285 284 284 286 284 285 287 288 288 289 288 286 284 283 284 285
230 232 232 232 230 229 230 229 231 235 239 241 243 247 251 255 259 263 266 267 269 273 276 280 284 286 288 288 288 286 284 286 283 286 286 286 286 284 283 282 281 282 280 282
232 234 234 235 235 233 232 231 231 234 237 240 244 247 250 253 257 261 265 268 271 274 276 279 282 283 285 286 287 285 286 285 283 285 285 283 285 283 279 281 283 284 284 284
234 236 236 236 235 234 234 233 234 236 239 242 245 247 249 254 256 261 264 265 268 274 276 277 279 282 284 283 284 285 286 286 284 287 287 286 285 286 280 279 282 282 283 284
236 237 239 238 236 237 235 234 237 239 238 240 245 248 249 252 257 261 264 266 268 271 272 275 277 279 281 283 282 283 283 282 283 286 288 288 287 283 278 275 277 278 280 282
238 238 239 238 237 237 235 236 238 239 239 241 243 248 250 252 256 261 265 268 269 271 273 275 275 278 279 280 280 280 281 282 282 283 284 285 285 283 278 275 275 275 276 278
239 239 239 238 236 235 236 237 240 241 243 243 245 249 253 252 255 259 262 267 269 271 273 275 277 278 278 279 279 280 280 280 280 281 282 284 284 285 280 277 278 277 278 278
239 238 238 239 239 238 238 238 240 242 245 247 248 250 253 255 257 260 262 265 268 270 271 273 275 276 277 278 278 279 280 279 279 281 282 282 283 283 280 277 277 278 279 280
239 239 239 240 241 241 240 239 240 245 249 250 249 251 254 256 258 261 263 265 268 269 270 271 273 275 277 277 277 278 278 278 278 279 279 280 280 280 279 276 275 276 278 280
239 241 243 243 245 246 244 243 242 244 247 249 249 251 255 256 258 260 264 265 267 268 269 271 273 274 275 275 275 275 275 276 277 277 278 277 277 278 278 279 276 275 277 280
242 244 244 244 246 247 245 245 247 247 248 251 252 254 254 257 260 261 262 263 266 268 270 271 272 273 273 273 273 273 274 275 276 276 277 276 275 276 277 279 276 276 278 280
242 245 246 248 250 250 249 250 251 254 255 255 255 256 258 259 260 261 263 265 267 268 269 270 271 271 272 273 272 273 274 274 275 275 275 275 274 275 277 278 278 277 279 280
241 243 246 248 250 251 253 253 253 256 258 258 258 260 260 260 260 263 264 265 267 268 269 270 270 272 272 272 273 273 272 273 273 273 273 273 274 275 276 276 276 277 279 281
Height
5921 5924 5926 5928 5930 5931 5931 5932 5932 5933 5932 5931 5930 5930 5930 5930 5930 5930 5929 5927 5926 5925 5924 5922 5920 5918 5916 5915 5913 5911 5909 5908 5906 5905 5903 5902 5901 5899 5898 5897 5896 5895 5894 5893
5918 5921 5924 5925 5926 5927 5928 5929 5930 5931 5930 5929 5928 5927 5928 5928 5929 5929 5929 5927 5926 5925 5924 5922 5921 5919 5918 5916 5914 5913 5911 5909 5907 5906 5904 5903 5901 5900 5899 5897 5896 5895 5894 5893
5913 5918 5919 5921 5922 5924 5925 5927 5928 5928 5928 5927 5926 5926 5926 5926 5927 5927 5927 5926 5926 5924 5923 5922 5921 5920 5918 5917 5915 5913 5912 5910 5908 5906 5905 5903 5901 5900 5899 5897 5896 5895 5893 5893
5908 5912 5914 5916 5918 5920 5922 5924 5925 5925 5924 5924 5925 5924 5924 5924 5925 5925 5925 5925 5925 5924 5923 5921 5920 5919 5918 5917 5915 5913 5912 5910 5908 5907 5905 5903 5902 5900 5898 5897 5895 5894 5893 5892
5904 5907 5909 5912 5915 5916 5918 5920 5921 5921 5922 5922 5922 5922 5923 5922 5922 5923 5923 5924 5923 5923 5923 5921 5919 5918 5918 5917 5915 5913 5911 5909 5908 5906 5904 5903 5901 5900 5898 5896 5895 5894 5892 5891
5900 5902 5905 5908 5910 5912 5914 5916 5917 5917 5918 5919 5920 5920 5920 5920 5920 5920 5920 5921 5921 5920 5921 5920 5919 5918 5917 5916 5915 5913 5911 5909 5907 5906 5904 5902 5900 5899 5897 5896 5894 5893 5892 5891
5894 5897 5900 5903 5905 5908 5910 5912 5913 5914 5914 5916 5917 5916 5917 5917 5918 5918 5917 5917 5918 5917 5917 5917 5917 5916 5915 5914 5913 5912 5910 5908 5906 5905 5903 5901 5900 5898 5896 5895 5893 5892 5890 5889
5888 5892 5896 5898 5901 5903 5905 5907 5909 5910 5911 5912 5912 5912 5914 5914 5914 5914 5914 5914 5915 5914 5914 5914 5913 5913 5913 5912 5911 5909 5908 5906 5905 5903 5901 5900 5898 5897 5895 5893 5892 5891 5889 5888
5882 5887 5891 5893 5896 5899 5900 5902 5904 5905 5906 5907 5907 5908 5908 5909 5909 5910 5910 5910 5911 5911 5910 5910 5910 5910 5909 5909 5907 5906 5905 5904 5903 5901 5900 5898 5896 5895 5893 5892 5890 5889 5887 5886
5877 5881 5885 5888 5891 5893 5895 5897 5899 5900 5900 5901 5902 5903 5904 5905 5905 5905 5906 5906 5906 5907 5907 5906 5905 5905 5905 5905 5904 5903 5902 5901 5900 5899 5898 5896 5895 5893 5891 5890 5888 5887 5885 5884
5871 5874 5879 5881 5884 5887 5890 5892 5893 5894 5895 5896 5896 5899 5900 5900 5901 5901 5901 5902 5902 5902 5902 5902 5901 5902 5902 5902 5901 5900 5899 5898 5897 5895 5894 5893 5892 5890 5889 5887 5886 5884 5882 5881
5864 5867 5871 5876 5879 5881 5883 5885 5887 5889 5890 5891 5891 5895 5895 5896 5896 5897 5897 5897 5898 5898 5898 5898 5898 5898 5898 5897 5897 5896 5894 5894 5893 5891 5890 5889 5888 5887 5885 5884 5882 5880 5879 5878
5858 5861 5865 5869 5874 5876 5877 5879 5881 5882 5884 5885 5886 5890 5889 5891 5891 5892 5892 5893 5893 5893 5894 5894 5894 5894 5893 5892 5891 5890 5889 5889 5888 5887 5885 5884 5883 5882 5880 5878 5877 5875 5874 5873
5852 5855 5859 5863 5865 5868 5870 5872 5874 5876 5877 5878 5880 5882 5884 5885 5885 5886 5887 5888 5888 5889 5889 5889 5889 5889 5888 5887 5886 5885 5884 5884 5882 5881 5880 5879 5878 5876 5874 5871 5869 5869 5868 5868
5846 5849 5851 5854 5858 5861 5863 5866 5868 5869 5871 5873 5874 5876 5877 5879 5879 5880 5881 5882 5883 5883 5884 5884 5884 5883 5882 5881 5880 5880 5878 5878 5877 5876 5874 5873 5872 5870 5868 5865 5864 5863 5862 5862
5839 5842 5845 5848 5850 5853 5856 5859 5861 5863 5864 5866 5868 5870 5871 5872 5874 5875 5876 5877 5877 5878 5878 5878 5877 5876 5876 5875 5874 5873 5872 5871 5870 5869 5867 5865 5864 5863 5862 5860 5858 5857 5857 5856
5832 5835 5838 5841 5843 5845 5848 5852 5855 5856 5858 5860 5862 5864 5866 5867 5868 5869 5870 5871 5871 5872 5872 5872 5871 5871 5870 5869 5868 5866 5865 5864 5863 5862 5860 5859 5857 5856 5855 5854 5852 5852 5851 5850
5825 5828 5830 5833 5837 5838 5843 5845 5847 5849 5851 5853 5855 5857 5859 5861 5862 5863 5863 5864 5864 5864 5865 5864 5864 5864 5863 5862 5861 5860 5859 5857 5856 5855 5853 5852 5850 5848 5847 5846 5846 5846 5845 5844
5818 5820 5823 5826 5828 5830 5835 5837 5839 5842 5844 5846 5848 5850 5852 5854 5855 5855 5856 5857 5857 5857 5857 5857 5857 5857 5856 5856 5855 5853 5852 5850 5849 5848 5846 5844 5843 5841 5840 5839 5839 5838 5838 5837
5810 5812 5816 5818 5820 5823 5828 5829 5831 5835 5836 5839 5841 5843 5844 5846 5847 5849 5848 5849 5849 5849 5849 5848 5848 5848 5848 5848 5847 5846 5845 5843 5841 5840 5838 5837 5835 5834 5832 5832 5831 5830 5829 5829
5803 5805 5808 5810 5812 5815 5819 5822 5824 5827 5829 5832 5833 5834 5836 5838 5839 5841 5840 5840 5840 5840 5840 5840 5839 5839 5838 5838 5838 5837 5836 5835 5833 5831 5830 5829 5827 5826 5825 5824 5823 5822 5821 5821
5795 5798 5801 5803 5805 5809 5811 5814 5817 5819 5821 5822 5824 5825 5826 5828 5830 5831 5831 5831 5831 5831 5831 5831 5831 5830 5829 5828 5828 5828 5827 5826 5824 5823 5821 5820 5819 5818 5817 5816 5814 5813 5812 5812
5788 5791 5793 5796 5799 5800 5803 5806 5808 5810 5812 5813 5815 5816 5818 5819 5820 5821 5821 5821 5821 5821 5821 5821 5820 5820 5819 5818 5817 5817 5817 5816 5815 5813 5812 5811 5810 5809 5808 5807 5805 5804 5804 5803
5780 5783 5785 5788 5790 5792 5794 5797 5799 5801 5803 5805 5806 5807 5808 5809 5810 5810 5810 5810 5810 5811 5811 5810 5810 5809 5808 5807 5806 5806 5806 5805 5805 5804 5803 5802 5801 5799 5798 5797 5796 5795 5794 5793
5773 5775 5777 5780 5782 5784 5786 5788 5790 5791 5793 5795 5796 5797 5797 5797 5799 5799 5799 5799 5799 5799 5799 5799 5798 5798 5797 5796 5795 5795 5795 5794 5793 5793 5792 5792 5791 5789 5788 5787 5785 5784 5784 5783
5766 5768 5770 5772 5774 5776 5778 5779 5780 5782 5783 5784 5785 5786 5787 5787 5788 5788 5788 5788 5788 5788 5788 5787 5787 5787 5786 5785 5784 5783 5782 5782 5781 5781 5781 5781 5780 5778 5776 5775 5775 5774 5774 5772